TimeEST,TemperatureF,Dew PointF,Humidity,Sea Level PressureIn,VisibilityMPH,Wind Direction,Wind SpeedMPH,Gust SpeedMPH,PrecipitationIn,Events,Conditions,WindDirDegrees,DateUTC
12:53 AM,44.1,42.1,93,30.38,10.0,NE,3.5,-,N/A,,Clear,40,2013-01-09 05:53:00
1:53 AM,43.0,41.0,93,30.36,8.0,Calm,Calm,-,N/A,,Clear,0,2013-01-09 06:53:00
2:53 AM,45.0,43.0,93,30.36,8.0,Calm,Calm,-,N/A,,Scattered Clouds,0,2013-01-09 07:53:00
3:53 AM,46.9,44.1,90,30.35,10.0,Calm,Calm,-,N/A,,Overcast,0,2013-01-09 08:53:00
4:53 AM,48.0,45.0,89,30.36,10.0,Calm,Calm,-,N/A,,Overcast,0,2013-01-09 09:53:00
5:53 AM,48.9,46.9,93,30.36,10.0,NNE,3.5,-,N/A,,Overcast,20,2013-01-09 10:53:00
6:53 AM,50.0,48.0,93,30.39,10.0,Calm,Calm,-,N/A,,Overcast,0,2013-01-09 11:53:00
7:53 AM,52.0,48.9,89,30.41,10.0,Calm,Calm,-,N/A,,Overcast,0,2013-01-09 12:53:00
8:53 AM,55.0,51.1,86,30.41,10.0,Calm,Calm,-,N/A,,Overcast,0,2013-01-09 13:53:00
9:53 AM,60.1,52.0,75,30.42,10.0,ENE,3.5,-,N/A,,Overcast,60,2013-01-09 14:53:00
10:53 AM,63.0,53.1,70,30.40,10.0,NNE,3.5,-,N/A,,Overcast,30,2013-01-09 15:53:00
11:51 AM,68.0,53.6,60,30.37,10.0,East,6.9,-,N/A,,Mostly Cloudy,90,2013-01-09 16:51:00
11:53 AM,68.0,53.1,59,30.38,10.0,East,6.9,-,N/A,,Mostly Cloudy,80,2013-01-09 16:53:00
12:53 PM,69.1,54.0,58,30.36,10.0,East,6.9,-,N/A,,Mostly Cloudy,90,2013-01-09 17:53:00
1:04 PM,69.8,53.6,56,30.36,10.0,ENE,5.8,-,N/A,,Overcast,60,2013-01-09 18:04:00
1:53 PM,70.0,54.0,57,30.35,10.0,East,6.9,-,N/A,,Mostly Cloudy,100,2013-01-09 18:53:00
2:53 PM,70.0,55.0,59,30.36,10.0,ESE,6.9,-,N/A,,Scattered Clouds,120,2013-01-09 19:53:00
3:53 PM,66.9,54.0,63,30.37,10.0,ESE,4.6,-,N/A,,Clear,120,2013-01-09 20:53:00
4:53 PM,64.9,55.0,70,30.38,10.0,ESE,3.5,-,N/A,,Clear,120,2013-01-09 21:53:00
5:53 PM,62.1,54.0,75,30.38,10.0,SE,3.5,-,N/A,,Clear,140,2013-01-09 22:53:00
6:53 PM,61.0,53.1,75,30.39,10.0,Calm,Calm,-,N/A,,Clear,0,2013-01-09 23:53:00
7:53 PM,59.0,53.1,81,30.38,10.0,Calm,Calm,-,N/A,,Overcast,0,2013-01-10 00:53:00
8:53 PM,57.2,53.6,88,30.39,10.0,Calm,Calm,-,N/A,,Clear,0,2013-01-10 01:53:00
9:53 PM,57.9,54.0,87,30.38,10.0,Calm,Calm,-,N/A,,Clear,0,2013-01-10 02:53:00
10:53 PM,55.9,53.1,90,30.39,10.0,Calm,Calm,-,N/A,,Clear,0,2013-01-10 03:53:00
11:53 PM,55.9,53.1,90,30.41,10.0,Calm,Calm,-,N/A,,Clear,0,2013-01-10 04:53:00